STARLINK-34389 (64351 NORAD) Tracking and Keplerian Element Data

This shows tracking and keplerian element data for the satellite.

Feedback or suggestion? Click here.




ElementValue
Catalog64351
NameSTARLINK-34389
Epoch Orbit2875
Epoch Day354.05395035
Epoch Year2025
RAAN235.2241
Inclination70.0029
Eccentricity9.73E-05
Argument of Perigee270.6854
Mean Anonmoly89.4194
Mean Motion14.98325106
Decay Rate-2.262E-05
L11 64351U 25126H 25354.05395035 -.00002262 00000+0 -18194-3 0 9993
L22 64351 70.0029 235.2241 0000973 270.6854 89.4194 14.98325106 28755



Live tracking and technical data element details for STARLINK-34389 (NORAD 64351). STARLINK-34389 can be tracked NOW for your location showing map with azimuth and elevation plus other details from your city location.







IsCatalogInMostPopularTable: catalog: 64351, numindb: 9
Update: records affected: 1



GetName: 64351 STARLINK-34389

Hit Count: updated at: Sat, 11 Apr 2026 21:36:37 GMT